Location: Demmingen
(48.6757°N, 10.4375°E)
Time: 13:42:27
(UTC+00:00)

CZ-2C R/B - Pass Details

Date: 16 August 2024
Orbit: 782 x 869 km, 98.3° (Epoch: 15 September)

Event Time Altitude Azimuth Distance (km) Brightness Sun altitude
Exits shadow 02:17:26 24° 250° (WSW) 1,688 3.7 -16.7°
Maximum altitude 02:18:28 25° 268° (W) 1,628 3.8 -16.6°
Drops below altitude 10° 02:22:54 10° 323° (NW) 2,440 5.2 -16.0°
Sets 02:25:39 0° 336° (NNW) 3,362 6.1 -15.7°
